Satellite: NOAA-11
Catalog number: 19531
Epoch time: 07248.82136493
Element set: 0820
Inclination: 098.8101 deg
RA of node: 336.9796 deg
Eccentricity: 0.0011859
Arg of perigee: 157.6777 deg
Mean anomaly: 202.4924 deg
Mean motion: 14.14849598 rev/day
Decay rate: -1.66e-06 rev/day^2
Epoch rev: 97755
Checksum: 355
Satellite: NOAA-12
Catalog number: 21263
Epoch time: 07249.79274245
Element set: 322
Inclination: 098.7589 deg
RA of node: 246.9173 deg
Eccentricity: 0.0011658
Arg of perigee: 229.0032 deg
Mean anomaly: 131.0630 deg
Mean motion: 14.25491578 rev/day
Decay rate: -4.0e-08 rev/day^2
Epoch rev: 84791
Checksum: 309
Satellite: MET-3/5
Catalog number: 21655
Epoch time: 07249.83967120
Element set: 317
Inclination: 082.5565 deg
RA of node: 305.2632 deg
Eccentricity: 0.0014040
Arg of perigee: 009.8234 deg
Mean anomaly: 350.3159 deg
Mean motion: 13.17011949 rev/day
Decay rate: 5.1e-07 rev/day^2
Epoch rev: 77215
Checksum: 284
Satellite: MET-2/21
Catalog number: 22782
Epoch time: 07248.78333047
Element set: 925
Inclination: 082.5516 deg
RA of node: 337.9805 deg
Eccentricity: 0.0022825
Arg of perigee: 014.5534 deg
Mean anomaly: 345.6284 deg
Mean motion: 13.83616191 rev/day
Decay rate: -4.0e-07 rev/day^2
Epoch rev: 70766
Checksum: 314
Satellite: OKEAN-4
Catalog number: 23317
Epoch time: 07249.78085537
Element set: 364
Inclination: 082.5377 deg
RA of node: 220.4037 deg
Eccentricity: 0.0021971
Arg of perigee: 349.0451 deg
Mean anomaly: 011.0290 deg
Mean motion: 14.82531350 rev/day
Decay rate: 3.48e-06 rev/day^2
Epoch rev: 69614
Checksum: 290
Satellite: NOAA-14
Catalog number: 23455
Epoch time: 07249.75325597
Element set: 799
Inclination: 098.9830 deg
RA of node: 316.3476 deg
Eccentricity: 0.0008827
Arg of perigee: 226.1316 deg
Mean anomaly: 133.9601 deg
Mean motion: 14.13724088 rev/day
Decay rate: -7.4e-07 rev/day^2
Epoch rev: 65425
Checksum: 333
Satellite: SICH-1
Catalog number: 23657
Epoch time: 07248.79695005
Element set: 163
Inclination: 082.5315 deg
RA of node: 002.2770 deg
Eccentricity: 0.0023517
Arg of perigee: 342.7497 deg
Mean anomaly: 017.2904 deg
Mean motion: 14.81510199 rev/day
Decay rate: 8.4e-07 rev/day^2
Epoch rev: 64796
Checksum: 309
Satellite: NOAA-15
Catalog number: 25338
Epoch time: 07249.78168885
Element set: 146
Inclination: 098.5374 deg
RA of node: 244.1868 deg
Eccentricity: 0.0011023
Arg of perigee: 146.4899 deg
Mean anomaly: 213.7469 deg
Mean motion: 14.24663401 rev/day
Decay rate: 8.3e-07 rev/day^2
Epoch rev: 48431
Checksum: 333
Satellite: RESURS
Catalog number: 25394
Epoch time: 07249.70746985
Element set: 730
Inclination: 098.4319 deg
RA of node: 300.9808 deg
Eccentricity: 0.0001434
Arg of perigee: 351.9885 deg
Mean anomaly: 008.1270 deg
Mean motion: 14.24144381 rev/day
Decay rate: -1.3e-07 rev/day^2
Epoch rev: 47595
Checksum: 309
Satellite: FENGYUN1
Catalog number: 25730
Epoch time: 07248.95949308
Element set: 0251
Inclination: 098.6939 deg
RA of node: 229.7848 deg
Eccentricity: 0.0017723
Arg of perigee: 262.0888 deg
Mean anomaly: 097.8268 deg
Mean motion: 14.07593278 rev/day
Decay rate: 1.64e-06 rev/day^2
Epoch rev: 42883
Checksum: 363
Satellite: OKEAN-0
Catalog number: 25860
Epoch time: 07248.63566536
Element set: 150
Inclination: 097.7348 deg
RA of node: 247.1410 deg
Eccentricity: 0.0001826
Arg of perigee: 089.4621 deg
Mean anomaly: 270.6793 deg
Mean motion: 14.73471257 rev/day
Decay rate: 1.4e-07 rev/day^2
Epoch rev: 43734
Checksum: 304
Satellite: NOAA-16
Catalog number: 26536
Epoch time: 07249.79570823
Element set: 579
Inclination: 099.1261 deg
RA of node: 228.1907 deg
Eccentricity: 0.0010000
Arg of perigee: 308.6715 deg
Mean anomaly: 051.4043 deg
Mean motion: 14.12449217 rev/day
Decay rate: -1.0e-08 rev/day^2
Epoch rev: 35862
Checksum: 291
Satellite: NOAA-17
Catalog number: 27453
Epoch time: 07249.82074596
Element set: 581
Inclination: 098.5730 deg
RA of node: 317.1403 deg
Eccentricity: 0.0011238
Arg of perigee: 212.8579 deg
Mean anomaly: 147.2380 deg
Mean motion: 14.23906456 rev/day
Decay rate: 8.8e-07 rev/day^2
Epoch rev: 27033
Checksum: 313
Satellite: NOAA-18
Catalog number: 28654
Epoch time: 07249.79646545
Element set: 109
Inclination: 098.8319 deg
RA of node: 189.7238 deg
Eccentricity: 0.0015188
Arg of perigee: 040.1252 deg
Mean anomaly: 320.1511 deg
Mean motion: 14.11093425 rev/day
Decay rate: 2.68e-06 rev/day^2
Epoch rev: 11836
Checksum: 313
/EX
SB KEPS @ AMSAT $ORB07249.M
Orbital Elements 07249.MISC
HR AMSAT ORBITAL ELEMENTS FOR MANNED AND MISCELLANEOUS SATELLITES
FROM WA5QGD FORT WORTH,TX September 6, 2007
Send Subscribe/unsubscribe to KEPS at
http://www.amsat.org/mailman/listinfo/keps
BID: ORB07249.M
TO ALL RADIO AMATEURS BT
Satellite: HUBBLE
Catalog number: 20580
Epoch time: 07248.76842281
Element set: 0963
Inclination: 028.4678 deg
RA of node: 024.6464 deg
Eccentricity: 0.0003908
Arg of perigee: 230.0156 deg
Mean anomaly: 130.0093 deg
Mean motion: 15.00275322 rev/day
Decay rate: 3.43e-06 rev/day^2
Epoch rev: 75207
Checksum: 273
Satellite: UARS
Catalog number: 21701
Epoch time: 07249.68387090
Element set: 161
Inclination: 056.9765 deg
RA of node: 320.1014 deg
Eccentricity: 0.0090007
Arg of perigee: 353.7436 deg
Mean anomaly: 006.2486 deg
Mean motion: 15.48787509 rev/day
Decay rate: 3.667e-05 rev/day^2
Epoch rev: 87837
Checksum: 321
Satellite: PO-34
Catalog number: 25520
Epoch time: 07247.51461941
Element set: 0822
Inclination: 028.4606 deg
RA of node: 297.8001 deg
Eccentricity: 0.0005128
Arg of perigee: 043.7330 deg
Mean anomaly: 316.3671 deg
Mean motion: 15.17042860 rev/day
Decay rate: 4.51e-06 rev/day^2
Epoch rev: 48958
Checksum: 288
Satellite: ISS
Catalog number: 25544
Epoch time: 07249.80230007
Element set: 932
Inclination: 051.6359 deg
RA of node: 042.7170 deg
Eccentricity: 0.0008539
Arg of perigee: 338.5831 deg
Mean anomaly: 163.2841 deg
Mean motion: 15.76596834 rev/day
Decay rate: 1.6392e-04 rev/day^2
Epoch rev: 50365
Checksum: 308
Satellite: OO-38
Catalog number: 26063
Epoch time: 07249.56148146
Element set: 4
Inclination: 100.2290 deg
RA of node: 267.2222 deg
Eccentricity: 0.0036616
Arg of perigee: 291.3870 deg
Mean anomaly: 068.3399 deg
Mean motion: 14.35814093 rev/day
Decay rate: -3.8e-07 rev/day^2
Epoch rev: 39872
Checksum: 306
Satellite: UWE-1
Catalog number: 28892
Epoch time: 07248.76509555
Element set: 0842
Inclination: 098.1192 deg
RA of node: 143.7691 deg
Eccentricity: 0.0016609
Arg of perigee: 218.3684 deg
Mean anomaly: 141.6333 deg
Mean motion: 14.59536744 rev/day
Decay rate: 8.2e-07 rev/day^2
Epoch rev: 09896
Checksum: 344
Satellite: CO-58
Catalog number: 28895
Epoch time: 07249.70100666
Element set: 819
Inclination: 098.1208 deg
RA of node: 144.9285 deg
Eccentricity: 0.0017070
Arg of perigee: 215.8017 deg
Mean anomaly: 144.2044 deg
Mean motion: 14.59581020 rev/day
Decay rate: 4.3e-07 rev/day^2
Epoch rev: 9898
Checksum: 317
Satellite: NCUBE2
Catalog number: 28897
Epoch time: 07248.66996557
Element set: 0347
Inclination: 098.1205 deg
RA of node: 143.8688 deg
Eccentricity: 0.0016200
Arg of perigee: 221.1643 deg
Mean anomaly: 138.8331 deg
Mean motion: 14.59745281 rev/day
Decay rate: 1.11e-06 rev/day^2
Epoch rev: 09111
Checksum: 312
Satellite: NMARS
Catalog number: 29662
Epoch time: 07126.39603970
Element set: 263
Inclination: 051.6121 deg
RA of node: 302.3682 deg
Eccentricity: 0.0004459
Arg of perigee: 252.1654 deg
Mean anomaly: 110.7411 deg
Mean motion: 16.47981436 rev/day
Decay rate: 7.031946e-02 rev/day^2
Epoch rev: 2165
Checksum: 289
Satellite: FCAL
Catalog number: 29667
Epoch time: 07249.80380785
Element set: 305
Inclination: 051.6345 deg
RA of node: 025.3894 deg
Eccentricity: 0.0012254
Arg of perigee: 306.8651 deg
Mean anomaly: 053.1232 deg
Mean motion: 15.91004060 rev/day
Decay rate: 1.5896e-04 rev/day^2
Epoch rev: 4098
Checksum: 296
Satellite: FALCON
Catalog number: 30776
Epoch time: 07249.84108579
Element set: 134
Inclination: 035.4343 deg
RA of node: 077.6506 deg
Eccentricity: 0.0001029
Arg of perigee: 034.6139 deg
Mean anomaly: 325.4645 deg
Mean motion: 15.02760013 rev/day
Decay rate: 2.79e-06 rev/day^2
Epoch rev: 2734
Checksum: 283
Satellite: MAST
Catalog number: 31126
Epoch time: 07249.63546002
Element set: 126
Inclination: 098.0772 deg
RA of node: 319.8849 deg
Eccentricity: 0.0095605
Arg of perigee: 133.0568 deg
Mean anomaly: 227.8691 deg
Mean motion: 14.53362679 rev/day
Decay rate: 3.44e-06 rev/day^2
Epoch rev: 2068
Checksum: 313
Satellite: CAPE1
Catalog number: 31130
Epoch time: 07249.64309022
Element set: 110
Inclination: 098.0735 deg
RA of node: 319.5543 deg
Eccentricity: 0.0103752
Arg of perigee: 133.9335 deg
Mean anomaly: 227.0415 deg
Mean motion: 14.51881015 rev/day
Decay rate: -2.34e-06 rev/day^2
Epoch rev: 2043
Checksum: 249
/EX
More information about the Keps
mailing list